When you browse on this site, cookies collect data to enhance your experience and personalize the content and advertising you see.
Visit our Privacy Policy to learn more. By continuing to use the site, you agree to this use of cookies and data.
  • In Hungary
  • List of Countries
  • For 7 days
  • Water Temperature
  • Weather Map
  • News
  • Weather Widgets
  • user-avatar
    Login

    Hourly Weather Komorowo

    Today, 5 April, Sunday

    Time Temperature Precipitation Wind Pressure Humidity
    00:00 +4°C° 0 mm 1 mps 764 mmHg 66%
    01:00 +3°C° 0 mm 2 mps 765 mmHg 65%
    02:00 +3°C° 0 mm 2 mps 765 mmHg 66%
    03:00 +2°C° 0 mm 2 mps 765 mmHg 67%
    04:00 +2°C° 0 mm 2 mps 765 mmHg 68%
    05:00 +3°C° 0 mm 2 mps 765 mmHg 67%
    06:00 +3°C° 0 mm 2 mps 766 mmHg 66%
    07:00 +3°C° 0 mm 3 mps 766 mmHg 65%
    08:00 +5°C° 0 mm 3 mps 766 mmHg 59%
    09:00 +8°C° 0 mm 3 mps 766 mmHg 53%
    10:00 +10°C° 0 mm 4 mps 766 mmHg 47%
    11:00 +11°C° 0 mm 4 mps 766 mmHg 45%
    12:00 +12°C° 0 mm 4 mps 766 mmHg 43%
    13:00 +12°C° 0 mm 4 mps 766 mmHg 40%
    14:00 +12°C° 0 mm 4 mps 765 mmHg 41%
    15:00 +12°C° 0 mm 4 mps 765 mmHg 42%
    16:00 +12°C° 0 mm 5 mps 765 mmHg 43%
    17:00 +11°C° 0 mm 4 mps 765 mmHg 49%
    18:00 +8°C° 0 mm 4 mps 764 mmHg 54%
    19:00 +8°C° 0 mm 3 mps 764 mmHg 60%
    20:00 +6°C° 0 mm 4 mps 764 mmHg 61%
    21:00 +6°C° 0 mm 4 mps 764 mmHg 63%
    22:00 +5°C° 0 mm 4 mps 764 mmHg 64%
    23:00 +5°C° 0 mm 4 mps 764 mmHg 64%

    Tomorrow, 6 April, Monday

    Time Temperature Precipitation Wind Pressure Humidity
    00:00 +5°C° 0 mm 4 mps 764 mmHg 65%
    01:00 +4°C° 0 mm 4 mps 764 mmHg 66%
    02:00 +4°C° 0 mm 4 mps 764 mmHg 67%
    03:00 +3°C° 0 mm 4 mps 764 mmHg 68%
    04:00 +3°C° 0 mm 4 mps 763 mmHg 69%
    05:00 +3°C° 0 mm 5 mps 763 mmHg 68%
    06:00 +3°C° 0 mm 5 mps 763 mmHg 67%
    07:00 +5°C° 0 mm 5 mps 763 mmHg 66%
    08:00 +7°C° 0 mm 5 mps 763 mmHg 63%
    09:00 +9°C° 0 mm 5 mps 763 mmHg 59%
    10:00 +12°C° 0 mm 5 mps 764 mmHg 56%
    11:00 +13°C° 0 mm 5 mps 763 mmHg 52%
    12:00 +15°C° 0 mm 5 mps 763 mmHg 49%
    13:00 +16°C° 0 mm 5 mps 763 mmHg 45%
    14:00 +17°C° 0 mm 5 mps 763 mmHg 46%
    15:00 +17°C° 0 mm 5 mps 762 mmHg 46%
    16:00 +17°C° 0 mm 5 mps 762 mmHg 46%
    17:00 +15°C° 0 mm 5 mps 762 mmHg 52%
    18:00 +14°C° 0 mm 4 mps 762 mmHg 58%
    19:00 +12°C° 0 mm 3 mps 762 mmHg 64%
    20:00 +11°C° 0 mm 4 mps 762 mmHg 66%
    21:00 +11°C° 0 mm 4 mps 763 mmHg 67%
    22:00 +10°C° 0 mm 4 mps 763 mmHg 69%
    23:00 +10°C° 0 mm 4 mps 763 mmHg 68%

    Day after tomorrow, 7 April, Tuesday

    Time Temperature Precipitation Wind Pressure Humidity
    00:00 +8°C° 0 mm 4 mps 763 mmHg 68%
    01:00 +8°C° 0 mm 4 mps 763 mmHg 68%
    02:00 +7°C° 0 mm 4 mps 763 mmHg 69%
    03:00 +7°C° 0 mm 3 mps 763 mmHg 71%
    04:00 +7°C° 0 mm 3 mps 764 mmHg 72%
    05:00 +7°C° 0 mm 3 mps 764 mmHg 71%
    06:00 +8°C° 0 mm 3 mps 764 mmHg 69%
    07:00 +9°C° 0 mm 3 mps 764 mmHg 68%
    08:00 +11°C° 0 mm 3 mps 764 mmHg 63%
    09:00 +13°C° 0 mm 3 mps 764 mmHg 59%
    10:00 +16°C° 0 mm 3 mps 764 mmHg 55%
    11:00 +17°C° 0 mm 2 mps 764 mmHg 52%
    12:00 +19°C° 0 mm 2 mps 765 mmHg 49%
    13:00 +20°C° 0 mm 2 mps 765 mmHg 46%
    14:00 +20°C° 0 mm 2 mps 765 mmHg 45%
    15:00 +21°C° 0 mm 2 mps 765 mmHg 43%
    16:00 +21°C° 0 mm 2 mps 765 mmHg 42%
    17:00 +19°C° 0 mm 2 mps 765 mmHg 51%
    18:00 +17°C° 0 mm 2 mps 765 mmHg 59%
    19:00 +14°C° 0 mm 3 mps 765 mmHg 67%
    20:00 +13°C° 0 mm 3 mps 765 mmHg 73%
    21:00 +12°C° 0 mm 3 mps 766 mmHg 78%
    22:00 +10°C° 0 mm 3 mps 766 mmHg 84%
    23:00 +10°C° 0 mm 3 mps 766 mmHg 85%

    8 April, Wednesday

    Time Temperature Precipitation Wind Pressure Humidity
    00:00 +9°C° 0 mm 3 mps 766 mmHg 87%
    01:00 +8°C° 0 mm 3 mps 766 mmHg 88%
    02:00 +8°C° 0 mm 2 mps 766 mmHg 89%
    03:00 +8°C° 0 mm 2 mps 766 mmHg 91%
    04:00 +7°C° 0 mm 2 mps 766 mmHg 92%
    05:00 +8°C° 0 mm 2 mps 766 mmHg 89%
    06:00 +9°C° 0 mm 2 mps 765 mmHg 85%
    07:00 +9°C° 0 mm 2 mps 765 mmHg 82%
    08:00 +12°C° 0 mm 2 mps 765 mmHg 75%
    09:00 +14°C° 0 mm 2 mps 765 mmHg 68%
    10:00 +16°C° 0 mm 1 mps 765 mmHg 61%
    11:00 +18°C° 0 mm 1 mps 764 mmHg 57%
    12:00 +20°C° 0 mm 1 mps 764 mmHg 53%
    13:00 +21°C° 0 mm 1 mps 764 mmHg 49%
    14:00 +21°C° 0 mm 1 mps 763 mmHg 49%
    15:00 +21°C° 0 mm 1 mps 762 mmHg 49%
    16:00 +20°C° 0 mm 1 mps 762 mmHg 49%
    17:00 +19°C° 0 mm 1 mps 762 mmHg 52%
    18:00 +18°C° 0 mm 1 mps 761 mmHg 55%
    19:00 +16°C° 0 mm 2 mps 761 mmHg 58%
    20:00 +15°C° 0 mm 2 mps 761 mmHg 58%
    21:00 +14°C° 0 mm 2 mps 761 mmHg 58%
    22:00 +13°C° 0 mm 2 mps 760 mmHg 58%
    23:00 +12°C° 0 mm 2 mps 760 mmHg 59%

    9 April, Thursday

    Time Temperature Precipitation Wind Pressure Humidity
    00:00 +12°C° 0 mm 2 mps 760 mmHg 60%
    01:00 +10°C° 0 mm 2 mps 759 mmHg 60%
    02:00 +9°C° 0 mm 2 mps 759 mmHg 61%
    03:00 +9°C° 0 mm 2 mps 759 mmHg 61%
    04:00 +8°C° 0 mm 2 mps 758 mmHg 62%
    05:00 +9°C° 0 mm 2 mps 758 mmHg 63%
    06:00 +10°C° 0 mm 2 mps 758 mmHg 64%
    07:00 +10°C° 0 mm 2 mps 758 mmHg 65%
    08:00 +13°C° 0 mm 2 mps 758 mmHg 61%
    09:00 +14°C° 0 mm 3 mps 757 mmHg 56%
    10:00 +18°C° 0 mm 3 mps 757 mmHg 52%
    11:00 +18°C° 0 mm 4 mps 757 mmHg 49%
    12:00 +19°C° 0 mm 4 mps 757 mmHg 47%
    13:00 +19°C° 0 mm 5 mps 757 mmHg 45%
    14:00 +17°C° 0.1 mm 5 mps 757 mmHg 49%
    15:00 +16°C° 0.1 mm 6 mps 757 mmHg 53%
    16:00 +15°C° 0.1 mm 6 mps 756 mmHg 57%
    17:00 +14°C° 0 mm 6 mps 757 mmHg 61%
    18:00 +12°C° 0 mm 5 mps 757 mmHg 65%
    19:00 +11°C° 0 mm 4 mps 757 mmHg 70%
    20:00 +10°C° 0 mm 4 mps 758 mmHg 72%
    21:00 +8°C° 0 mm 4 mps 758 mmHg 75%
    22:00 +7°C° 0 mm 4 mps 759 mmHg 78%
    23:00 +6°C° 0 mm 4 mps 759 mmHg 74%

    10 April, Friday

    Time Temperature Precipitation Wind Pressure Humidity
    00:00 +5°C° 0 mm 4 mps 759 mmHg 71%
    01:00 +4°C° 0 mm 3 mps 759 mmHg 68%
    02:00 +3°C° 0 mm 3 mps 760 mmHg 71%
    03:00 +3°C° 0 mm 3 mps 760 mmHg 75%
    04:00 +2°C° 0 mm 3 mps 760 mmHg 78%
    05:00 +3°C° 0 mm 3 mps 760 mmHg 77%
    06:00 +3°C° 0 mm 3 mps 761 mmHg 75%
    07:00 +4°C° 0 mm 4 mps 761 mmHg 74%
    08:00 +6°C° 0 mm 4 mps 761 mmHg 66%
    09:00 +7°C° 0 mm 4 mps 761 mmHg 59%
    10:00 +10°C° 0 mm 4 mps 762 mmHg 51%
    11:00 +11°C° 0 mm 3 mps 761 mmHg 49%
    12:00 +12°C° 0 mm 3 mps 761 mmHg 46%
    13:00 +13°C° 0 mm 3 mps 761 mmHg 43%
    14:00 +13°C° 0 mm 3 mps 761 mmHg 42%
    15:00 +13°C° 0 mm 3 mps 760 mmHg 42%
    16:00 +13°C° 0 mm 3 mps 760 mmHg 41%
    17:00 +12°C° 0 mm 3 mps 760 mmHg 47%
    18:00 +10°C° 0 mm 2 mps 760 mmHg 52%
    19:00 +9°C° 0 mm 2 mps 759 mmHg 57%
    20:00 +8°C° 0 mm 2 mps 760 mmHg 59%
    21:00 +8°C° 0 mm 1 mps 760 mmHg 61%
    22:00 +8°C° 0 mm 1 mps 760 mmHg 62%
    23:00 +7°C° 0 mm 1 mps 760 mmHg 65%
    Show more